Year,Month,Day,Hour,Minute,Value (Times are PST for temperature in C)
2017,04,01,00,00,8.70
2017,04,01,00,01,8.70
2017,04,01,00,02,8.70
2017,04,01,00,04,8.70
2017,04,01,00,06,8.70
2017,04,01,00,07,8.70
2017,04,01,00,09,8.70
2017,04,01,00,10,8.70
2017,04,01,00,12,8.70
2017,04,01,00,13,8.70
2017,04,01,00,14,8.70
2017,04,01,00,16,8.70
2017,04,01,00,17,8.70
2017,04,01,00,18,8.70
2017,04,01,00,19,8.70
2017,04,01,00,21,8.70
2017,04,01,00,22,8.70
2017,04,01,00,23,8.70
2017,04,01,00,24,8.70
2017,04,01,00,26,8.70
2017,04,01,00,27,8.60
2017,04,01,00,28,8.60
2017,04,01,00,29,8.60
2017,04,01,00,31,8.60
2017,04,01,00,32,8.60
2017,04,01,00,33,8.60
2017,04,01,00,34,8.60
2017,04,01,00,36,8.50
2017,04,01,00,37,8.50
2017,04,01,00,38,8.50
2017,04,01,00,39,8.50
2017,04,01,00,41,8.50
2017,04,01,00,42,8.50
2017,04,01,00,43,8.50
2017,04,01,00,44,8.50
2017,04,01,00,46,8.40
2017,04,01,00,47,8.40
2017,04,01,00,48,8.40
2017,04,01,00,49,8.40
2017,04,01,00,51,8.40
2017,04,01,00,52,8.40
2017,04,01,00,53,8.40
2017,04,01,00,54,8.40
2017,04,01,00,56,8.30
2017,04,01,00,57,8.30
2017,04,01,00,58,8.30
2017,04,01,00,59,8.30
2017,04,01,01,01,8.30
2017,04,01,01,02,8.30
2017,04,01,01,03,8.30
2017,04,01,01,04,8.30
2017,04,01,01,06,8.20
2017,04,01,01,07,8.20
2017,04,01,01,08,8.20
2017,04,01,01,09,8.20
2017,04,01,01,11,8.20
2017,04,01,01,12,8.20
2017,04,01,01,13,8.20
2017,04,01,01,14,8.20
2017,04,01,01,16,8.20
2017,04,01,01,17,8.20
2017,04,01,01,18,8.20
2017,04,01,01,19,8.20
2017,04,01,01,21,8.20
2017,04,01,01,22,8.20
2017,04,01,01,23,8.20
2017,04,01,01,24,8.20
2017,04,01,01,25,8.20
2017,04,01,01,26,8.20
2017,04,01,01,27,8.20
2017,04,01,01,28,8.20
2017,04,01,01,29,8.20
2017,04,01,01,30,8.20
2017,04,01,01,31,8.20
2017,04,01,01,32,8.20
2017,04,01,01,33,8.20
2017,04,01,01,34,8.20
2017,04,01,01,35,8.20
2017,04,01,01,36,8.20
2017,04,01,01,37,8.10
2017,04,01,01,38,8.10
2017,04,01,01,39,8.10
2017,04,01,01,40,8.10
2017,04,01,01,41,8.10
2017,04,01,01,42,8.10
2017,04,01,01,43,8.10
2017,04,01,01,44,8.10
2017,04,01,01,45,8.10
2017,04,01,01,46,8.10
2017,04,01,01,47,8.10
2017,04,01,01,48,8.10
2017,04,01,01,49,8.10
2017,04,01,01,50,8.10
2017,04,01,01,51,8.10
2017,04,01,01,52,8.10
2017,04,01,01,53,8.10
2017,04,01,01,54,8.10
2017,04,01,01,55,8.10
2017,04,01,01,56,8.10
2017,04,01,01,57,8.10
2017,04,01,01,58,8.10
2017,04,01,01,59,8.10
2017,04,01,02,00,8.20
2017,04,01,02,01,8.20
2017,04,01,02,02,8.20
2017,04,01,02,03,8.20
2017,04,01,02,04,8.20
2017,04,01,02,05,8.20
2017,04,01,02,06,8.20
2017,04,01,02,07,8.20
2017,04,01,02,08,8.20
2017,04,01,02,09,8.20
2017,04,01,02,10,8.20
2017,04,01,02,11,8.20
2017,04,01,02,12,8.20
2017,04,01,02,13,8.20
2017,04,01,02,14,8.20
2017,04,01,02,15,8.20
2017,04,01,02,16,8.20
2017,04,01,02,17,8.20
2017,04,01,02,18,8.20
2017,04,01,02,19,8.20
2017,04,01,02,20,8.20
2017,04,01,02,21,8.20
2017,04,01,02,22,8.20
2017,04,01,02,23,8.10
2017,04,01,02,24,8.10
2017,04,01,02,25,8.10
2017,04,01,02,26,8.10
2017,04,01,02,27,8.10
2017,04,01,02,28,8.10
2017,04,01,02,29,8.10
2017,04,01,02,30,8.10
2017,04,01,02,31,8.10
2017,04,01,02,32,8.10
2017,04,01,02,33,8.00
2017,04,01,02,34,8.00
2017,04,01,02,35,8.00
2017,04,01,02,36,8.00
2017,04,01,02,37,8.00
2017,04,01,02,38,8.00
2017,04,01,02,39,8.00
2017,04,01,02,40,8.00
2017,04,01,02,41,8.00
2017,04,01,02,42,8.00
2017,04,01,02,43,8.00
2017,04,01,02,44,8.00
2017,04,01,02,46,7.90
2017,04,01,02,47,7.90
2017,04,01,02,48,7.90
2017,04,01,02,49,7.90
2017,04,01,02,51,7.90
2017,04,01,02,52,7.90
2017,04,01,02,53,7.90
2017,04,01,02,54,7.80
2017,04,01,02,56,7.80
2017,04,01,02,57,7.80
2017,04,01,02,58,7.80
2017,04,01,02,59,7.80
2017,04,01,03,01,7.80
2017,04,01,03,02,7.80
2017,04,01,03,03,7.80
2017,04,01,03,04,7.90
2017,04,01,03,06,7.90
2017,04,01,03,07,7.90
2017,04,01,03,08,7.90
2017,04,01,03,09,7.90
2017,04,01,03,11,7.90
2017,04,01,03,12,7.90
2017,04,01,03,13,7.90
2017,04,01,03,14,7.90
2017,04,01,03,16,7.90
2017,04,01,03,17,7.90
2017,04,01,03,18,7.90
2017,04,01,03,19,7.90
2017,04,01,03,21,7.90
2017,04,01,03,22,7.90
2017,04,01,03,23,7.90
2017,04,01,03,24,7.90
2017,04,01,03,26,7.90
2017,04,01,03,27,7.80
2017,04,01,03,28,7.80
2017,04,01,03,29,7.80
2017,04,01,03,31,7.90
2017,04,01,03,32,7.80
2017,04,01,03,33,7.80
2017,04,01,03,34,7.80
2017,04,01,03,36,7.80
2017,04,01,03,37,7.80
2017,04,01,03,38,7.80
2017,04,01,03,39,7.80
2017,04,01,03,41,7.80
2017,04,01,03,42,7.80
2017,04,01,03,43,7.70
2017,04,01,03,44,7.70
2017,04,01,03,46,7.70
2017,04,01,03,47,7.70
2017,04,01,03,48,7.70
2017,04,01,03,49,7.70
2017,04,01,03,51,7.70
2017,04,01,03,52,7.70
2017,04,01,03,53,7.70
2017,04,01,03,54,7.70
2017,04,01,03,56,7.70
2017,04,01,03,57,7.70
2017,04,01,03,58,7.70
2017,04,01,03,59,7.70
2017,04,01,04,00,7.70
2017,04,01,04,01,7.70
2017,04,01,04,02,7.70
2017,04,01,04,03,7.70
2017,04,01,04,04,7.70
2017,04,01,04,06,7.60
2017,04,01,04,07,7.60
2017,04,01,04,08,7.60
2017,04,01,04,09,7.60
2017,04,01,04,10,7.60
2017,04,01,04,11,7.60
2017,04,01,04,12,7.60
2017,04,01,04,13,7.60
2017,04,01,04,14,7.60
2017,04,01,04,15,7.60
2017,04,01,04,16,7.60
2017,04,01,04,17,7.60
2017,04,01,04,18,7.60
2017,04,01,04,19,7.60
2017,04,01,04,20,7.60
2017,04,01,04,21,7.60
2017,04,01,04,22,7.60
2017,04,01,04,23,7.60
2017,04,01,04,24,7.60
2017,04,01,04,25,7.60
2017,04,01,04,26,7.60
2017,04,01,04,27,7.60
2017,04,01,04,28,7.60
2017,04,01,04,29,7.60
2017,04,01,04,30,7.70
2017,04,01,04,31,7.70
2017,04,01,04,32,7.70
2017,04,01,04,33,7.70
2017,04,01,04,34,7.70
2017,04,01,04,35,7.70
2017,04,01,04,36,7.70
2017,04,01,04,37,7.70
2017,04,01,04,38,7.70
2017,04,01,04,39,7.70
2017,04,01,04,40,7.70
2017,04,01,04,41,7.70
2017,04,01,04,42,7.70
2017,04,01,04,43,7.70
2017,04,01,04,44,7.70
2017,04,01,04,45,7.70
2017,04,01,04,46,7.70
2017,04,01,04,47,7.70
2017,04,01,04,48,7.70
2017,04,01,04,49,7.70
2017,04,01,04,50,7.70
2017,04,01,04,51,7.70
2017,04,01,04,52,7.70
2017,04,01,04,53,7.70
2017,04,01,04,54,7.70
2017,04,01,04,55,7.70
2017,04,01,04,56,7.70
2017,04,01,04,57,7.70
2017,04,01,04,58,7.70
2017,04,01,04,59,7.70
2017,04,01,05,00,7.70
2017,04,01,05,01,7.70
2017,04,01,05,02,7.70
2017,04,01,05,03,7.70
2017,04,01,05,04,7.60
2017,04,01,05,05,7.60
2017,04,01,05,06,7.60
2017,04,01,05,07,7.60
2017,04,01,05,08,7.60
2017,04,01,05,09,7.60
2017,04,01,05,10,7.60
2017,04,01,05,11,7.60
2017,04,01,05,12,7.60
2017,04,01,05,13,7.60
2017,04,01,05,14,7.60
2017,04,01,05,15,7.60
2017,04,01,05,16,7.60
2017,04,01,05,17,7.60
2017,04,01,05,19,7.60
2017,04,01,05,21,7.60
2017,04,01,05,22,7.60
2017,04,01,05,23,7.60
2017,04,01,05,24,7.60
2017,04,01,05,26,7.60
2017,04,01,05,27,7.60
2017,04,01,05,28,7.60
2017,04,01,05,29,7.60
2017,04,01,05,31,7.60
2017,04,01,05,32,7.60
2017,04,01,05,33,7.60
2017,04,01,05,34,7.60
2017,04,01,05,36,7.60
2017,04,01,05,37,7.60
2017,04,01,05,38,7.60
2017,04,01,05,39,7.60
2017,04,01,05,41,7.60
2017,04,01,05,42,7.60
2017,04,01,05,43,7.60
2017,04,01,05,44,7.60
2017,04,01,05,46,7.60
2017,04,01,05,47,7.60
2017,04,01,05,48,7.60
2017,04,01,05,49,7.60
2017,04,01,05,51,7.60
2017,04,01,05,52,7.60
2017,04,01,05,53,7.60
2017,04,01,05,54,7.60
2017,04,01,05,56,7.60
2017,04,01,05,57,7.60
2017,04,01,05,58,7.50
2017,04,01,05,59,7.60
2017,04,01,06,01,7.50
2017,04,01,06,02,7.50
2017,04,01,06,03,7.50
2017,04,01,06,04,7.50
2017,04,01,06,06,7.50
2017,04,01,06,07,7.50
2017,04,01,06,08,7.60
2017,04,01,06,09,7.50
2017,04,01,06,11,7.50
2017,04,01,06,12,7.50
2017,04,01,06,13,7.50
2017,04,01,06,14,7.50
2017,04,01,06,16,7.50
2017,04,01,06,17,7.50
2017,04,01,06,18,7.50
2017,04,01,06,19,7.50
2017,04,01,06,21,7.50
2017,04,01,06,22,7.50
2017,04,01,06,23,7.50
2017,04,01,06,24,7.50
2017,04,01,06,26,7.50
2017,04,01,06,27,7.50
2017,04,01,06,28,7.50
2017,04,01,06,29,7.50
2017,04,01,06,31,7.50
2017,04,01,06,32,7.50
2017,04,01,06,33,7.50
2017,04,01,06,34,7.50
2017,04,01,06,36,7.50
2017,04,01,06,37,7.50
2017,04,01,06,38,7.50
2017,04,01,06,39,7.50
2017,04,01,06,40,7.50
2017,04,01,06,41,7.50
2017,04,01,06,42,7.50
2017,04,01,06,43,7.50
2017,04,01,06,44,7.50
2017,04,01,06,45,7.50
2017,04,01,06,46,7.50
2017,04,01,06,47,7.50
2017,04,01,06,48,7.50
2017,04,01,06,49,7.50
2017,04,01,06,50,7.50
2017,04,01,06,51,7.50
2017,04,01,06,52,7.50
2017,04,01,06,53,7.50
2017,04,01,06,54,7.50
2017,04,01,06,55,7.50
2017,04,01,06,56,7.50
2017,04,01,06,57,7.50
2017,04,01,06,58,7.50
2017,04,01,06,59,7.50
2017,04,01,07,00,7.50
2017,04,01,07,01,7.50
2017,04,01,07,02,7.50
2017,04,01,07,03,7.50
2017,04,01,07,04,7.50
2017,04,01,07,05,7.50
2017,04,01,07,06,7.50
2017,04,01,07,07,7.50
2017,04,01,07,08,7.50
2017,04,01,07,09,7.50
2017,04,01,07,10,7.50
2017,04,01,07,11,7.50
2017,04,01,07,12,7.50
2017,04,01,07,13,7.50
2017,04,01,07,14,7.50
2017,04,01,07,15,7.50
2017,04,01,07,16,7.50
2017,04,01,07,17,7.50
2017,04,01,07,18,7.50
2017,04,01,07,19,7.50
2017,04,01,07,20,7.50
2017,04,01,07,21,7.60
2017,04,01,07,22,7.60
2017,04,01,07,23,7.60
2017,04,01,07,24,7.60
2017,04,01,07,25,7.60
2017,04,01,07,26,7.60
2017,04,01,07,27,7.60
2017,04,01,07,28,7.60
2017,04,01,07,29,7.60
2017,04,01,07,30,7.60
2017,04,01,07,31,7.60
2017,04,01,07,32,7.60
2017,04,01,07,33,7.60
2017,04,01,07,34,7.60
2017,04,01,07,35,7.70
2017,04,01,07,36,7.70
2017,04,01,07,37,7.70
2017,04,01,07,38,7.70
2017,04,01,07,39,7.70
2017,04,01,07,40,7.70
2017,04,01,07,41,7.70
2017,04,01,07,42,7.70
2017,04,01,07,43,7.70
2017,04,01,07,44,7.80
2017,04,01,07,45,7.80
2017,04,01,07,46,7.80
2017,04,01,07,47,7.80
2017,04,01,07,48,7.80
2017,04,01,07,49,7.80
2017,04,01,07,50,7.80
2017,04,01,07,51,7.80
2017,04,01,07,52,7.80
2017,04,01,07,53,7.80
2017,04,01,07,54,7.80
2017,04,01,07,55,7.80
2017,04,01,07,56,7.80
2017,04,01,07,58,7.80
2017,04,01,07,59,7.80
2017,04,01,08,01,7.80
2017,04,01,08,02,7.80
2017,04,01,08,03,7.80
2017,04,01,08,04,7.80
2017,04,01,08,06,7.80
2017,04,01,08,07,7.80
2017,04,01,08,08,7.80
2017,04,01,08,09,7.80
2017,04,01,08,11,7.80
2017,04,01,08,12,7.80
2017,04,01,08,13,7.90
2017,04,01,08,14,7.90
2017,04,01,08,16,7.90
2017,04,01,08,17,7.90
2017,04,01,08,18,7.90
2017,04,01,08,19,7.90
2017,04,01,08,21,7.90
2017,04,01,08,22,7.90
2017,04,01,08,23,7.90
2017,04,01,08,24,7.90
2017,04,01,08,26,7.90
2017,04,01,08,27,7.90
2017,04,01,08,28,7.90
2017,04,01,08,29,7.90
2017,04,01,08,31,7.90
2017,04,01,08,32,7.90
2017,04,01,08,33,7.90
2017,04,01,08,34,7.90
2017,04,01,08,36,7.90
2017,04,01,08,37,7.90
2017,04,01,08,38,7.90
2017,04,01,08,39,7.90
2017,04,01,08,41,8.00
2017,04,01,08,42,8.00
2017,04,01,08,43,8.00
2017,04,01,08,44,8.00
2017,04,01,08,46,8.00
2017,04,01,08,47,8.00
2017,04,01,08,48,8.00
2017,04,01,08,49,8.00
2017,04,01,08,51,8.00
2017,04,01,08,52,8.00
2017,04,01,08,53,8.00
2017,04,01,08,54,8.00
2017,04,01,08,56,8.10
2017,04,01,08,57,8.10
2017,04,01,08,58,8.10
2017,04,01,08,59,8.10
2017,04,01,09,01,8.10
2017,04,01,09,02,8.10
2017,04,01,09,03,8.10
2017,04,01,09,04,8.00
2017,04,01,09,06,8.10
2017,04,01,09,07,8.10
2017,04,01,09,08,8.10
2017,04,01,09,09,8.10
2017,04,01,09,11,8.10
2017,04,01,09,12,8.10
2017,04,01,09,13,8.10
2017,04,01,09,14,8.10
2017,04,01,09,16,8.10
2017,04,01,09,17,8.10
2017,04,01,09,18,8.10
2017,04,01,09,19,8.20
2017,04,01,09,20,8.20
2017,04,01,09,21,8.20
2017,04,01,09,22,8.20
2017,04,01,09,23,8.10
2017,04,01,09,24,8.10
2017,04,01,09,25,8.10
2017,04,01,09,26,8.10
2017,04,01,09,27,8.10
2017,04,01,09,28,8.20
2017,04,01,09,29,8.20
2017,04,01,09,30,8.20
2017,04,01,09,31,8.20
2017,04,01,09,32,8.20
2017,04,01,09,33,8.20
2017,04,01,09,34,8.20
2017,04,01,09,35,8.20
2017,04,01,09,36,8.20
2017,04,01,09,37,8.20
2017,04,01,09,38,8.20
2017,04,01,09,39,8.20
2017,04,01,09,40,8.20
2017,04,01,09,41,8.20
2017,04,01,09,42,8.20
2017,04,01,09,43,8.20
2017,04,01,09,44,8.20
2017,04,01,09,45,8.20
2017,04,01,09,46,8.20
2017,04,01,09,47,8.20
2017,04,01,09,48,8.20
2017,04,01,09,49,8.20
2017,04,01,09,50,8.20
2017,04,01,09,51,8.20
2017,04,01,09,52,8.20
2017,04,01,09,53,8.20
2017,04,01,09,54,8.20
2017,04,01,09,55,8.20
2017,04,01,09,56,8.20
2017,04,01,09,57,8.20
2017,04,01,09,58,8.20
2017,04,01,09,59,8.30
2017,04,01,10,00,8.30
2017,04,01,10,01,8.30
2017,04,01,10,02,8.30
2017,04,01,10,03,8.30
2017,04,01,10,04,8.40
2017,04,01,10,05,8.40
2017,04,01,10,06,8.40
2017,04,01,10,07,8.50
2017,04,01,10,08,8.50
2017,04,01,10,09,8.50
2017,04,01,10,10,8.50
2017,04,01,10,11,8.50
2017,04,01,10,12,8.50
2017,04,01,10,13,8.50
2017,04,01,10,14,8.60
2017,04,01,10,15,8.60
2017,04,01,10,16,8.60
2017,04,01,10,17,8.60
2017,04,01,10,18,8.60
2017,04,01,10,19,8.60
2017,04,01,10,20,8.70
2017,04,01,10,21,8.70
2017,04,01,10,22,8.60
2017,04,01,10,23,8.60
2017,04,01,10,24,8.60
2017,04,01,10,25,8.70
2017,04,01,10,26,8.70
2017,04,01,10,27,8.70
2017,04,01,10,28,8.70
2017,04,01,10,29,8.70
2017,04,01,10,30,8.70
2017,04,01,10,31,8.70
2017,04,01,10,32,8.70
2017,04,01,10,33,8.70
2017,04,01,10,34,8.70
2017,04,01,10,35,8.70
2017,04,01,10,36,8.70
2017,04,01,10,37,8.60
2017,04,01,10,38,8.60
2017,04,01,10,39,8.60
2017,04,01,10,40,8.60
2017,04,01,10,41,8.60
2017,04,01,10,43,8.60
2017,04,01,10,44,8.60
2017,04,01,10,46,8.60
2017,04,01,10,47,8.60
2017,04,01,10,48,8.60
2017,04,01,10,49,8.60
2017,04,01,10,51,8.60
2017,04,01,10,52,8.60
2017,04,01,10,53,8.60
2017,04,01,10,54,8.60
2017,04,01,10,56,8.60
2017,04,01,10,57,8.50
2017,04,01,10,58,8.50
2017,04,01,10,59,8.50
2017,04,01,11,01,8.50
2017,04,01,11,02,8.60
2017,04,01,11,03,8.60
2017,04,01,11,04,8.60
2017,04,01,11,06,8.60
2017,04,01,11,07,8.50
2017,04,01,11,08,8.50
2017,04,01,11,09,8.50
2017,04,01,11,11,8.50
2017,04,01,11,12,8.50
2017,04,01,11,13,8.50
2017,04,01,11,14,8.60
2017,04,01,11,16,8.60
2017,04,01,11,17,8.60
2017,04,01,11,18,8.60
2017,04,01,11,19,8.60
2017,04,01,11,21,8.70
2017,04,01,11,22,8.70
2017,04,01,11,23,8.70
2017,04,01,11,24,8.70
2017,04,01,11,26,8.70
2017,04,01,11,27,8.70
2017,04,01,11,28,8.70
2017,04,01,11,29,8.70
2017,04,01,11,31,8.80
2017,04,01,11,32,8.80
2017,04,01,11,33,8.80
2017,04,01,11,34,8.80
2017,04,01,11,36,8.80
2017,04,01,11,37,8.90
2017,04,01,11,38,8.90
2017,04,01,11,39,8.90
2017,04,01,11,41,8.90
2017,04,01,11,42,8.90
2017,04,01,11,43,8.90
2017,04,01,11,44,8.90
2017,04,01,11,46,8.90
2017,04,01,11,47,8.90
2017,04,01,11,48,8.90
2017,04,01,11,49,9.00
2017,04,01,11,51,9.00
2017,04,01,11,52,9.00
2017,04,01,11,53,9.00
2017,04,01,11,54,9.00
2017,04,01,11,56,9.10
2017,04,01,11,57,9.10
2017,04,01,11,58,9.20
2017,04,01,11,59,9.20
2017,04,01,12,01,9.30
2017,04,01,12,02,9.40
2017,04,01,12,03,9.50
2017,04,01,12,04,9.60
2017,04,01,12,06,9.60
2017,04,01,12,07,9.70
2017,04,01,12,08,9.70
2017,04,01,12,09,9.60
2017,04,01,12,10,9.60
2017,04,01,12,11,9.60
2017,04,01,12,12,9.60
2017,04,01,12,13,9.60
2017,04,01,12,14,9.60
2017,04,01,12,15,9.60
2017,04,01,12,16,9.70
2017,04,01,12,17,9.70
2017,04,01,12,18,9.80
2017,04,01,12,19,9.90
2017,04,01,12,20,9.90
2017,04,01,12,21,9.90
2017,04,01,12,22,9.90
2017,04,01,12,23,9.90
2017,04,01,12,24,10.10
2017,04,01,12,25,10.10
2017,04,01,12,26,10.10
2017,04,01,12,27,10.10
2017,04,01,12,28,10.10
2017,04,01,12,29,10.10
2017,04,01,12,30,10.10
2017,04,01,12,31,10.10
2017,04,01,12,32,10.20
2017,04,01,12,33,10.20
2017,04,01,12,34,10.10
2017,04,01,12,35,10.10
2017,04,01,12,36,10.10
2017,04,01,12,37,10.10
2017,04,01,12,38,10.10
2017,04,01,12,39,10.10
2017,04,01,12,40,10.10
2017,04,01,12,41,10.10
2017,04,01,12,42,10.10
2017,04,01,12,43,10.20
2017,04,01,12,44,10.30
2017,04,01,12,45,10.40
2017,04,01,12,46,10.40
2017,04,01,12,47,10.40
2017,04,01,12,48,10.60
2017,04,01,12,49,10.60
2017,04,01,12,50,10.60
2017,04,01,12,51,10.60
2017,04,01,12,52,10.60
2017,04,01,12,53,10.60
2017,04,01,12,54,10.60
2017,04,01,12,55,10.60
2017,04,01,12,56,10.60
2017,04,01,12,57,10.60
2017,04,01,12,58,10.70
2017,04,01,12,59,10.70
2017,04,01,13,00,10.70
2017,04,01,13,01,10.80
2017,04,01,13,02,10.80
2017,04,01,13,03,10.80
2017,04,01,13,04,10.80
2017,04,01,13,05,10.80
2017,04,01,13,06,10.70
2017,04,01,13,07,10.70
2017,04,01,13,08,10.70
2017,04,01,13,09,10.60
2017,04,01,13,10,10.60
2017,04,01,13,11,10.60
2017,04,01,13,12,10.60
2017,04,01,13,13,10.60
2017,04,01,13,14,10.60
2017,04,01,13,15,10.60
2017,04,01,13,16,10.60
2017,04,01,13,17,10.70
2017,04,01,13,18,10.70
2017,04,01,13,19,10.80
2017,04,01,13,20,10.90
2017,04,01,13,21,10.90
2017,04,01,13,22,11.10
2017,04,01,13,23,11.10
2017,04,01,13,24,11.10
2017,04,01,13,25,11.10
2017,04,01,13,26,11.10
2017,04,01,13,28,11.20
2017,04,01,13,29,11.20
2017,04,01,13,31,11.40
2017,04,01,13,32,11.40
2017,04,01,13,33,11.60
2017,04,01,13,34,11.60
2017,04,01,13,36,11.70
2017,04,01,13,37,11.70
2017,04,01,13,38,11.80
2017,04,01,13,39,11.80
2017,04,01,13,41,11.80
2017,04,01,13,42,11.80
2017,04,01,13,43,11.80
2017,04,01,13,44,11.80
2017,04,01,13,46,11.80
2017,04,01,13,47,11.80
2017,04,01,13,48,11.80
2017,04,01,13,49,11.80
2017,04,01,13,51,11.80
2017,04,01,13,52,11.80
2017,04,01,13,53,11.80
2017,04,01,13,54,11.80
2017,04,01,13,56,11.80
2017,04,01,13,57,11.90
2017,04,01,13,58,11.90
2017,04,01,13,59,11.90
2017,04,01,14,01,11.90
2017,04,01,14,02,11.90
2017,04,01,14,03,11.80
2017,04,01,14,04,11.80
2017,04,01,14,06,11.60
2017,04,01,14,07,11.60
2017,04,01,14,08,11.60
2017,04,01,14,09,11.40
2017,04,01,14,11,11.40
2017,04,01,14,12,11.40
2017,04,01,14,13,11.30
2017,04,01,14,14,11.30
2017,04,01,14,16,11.30
2017,04,01,14,17,11.30
2017,04,01,14,18,11.30
2017,04,01,14,19,11.30
2017,04,01,14,21,11.30
2017,04,01,14,22,11.30
2017,04,01,14,23,11.20
2017,04,01,14,24,11.20
2017,04,01,14,26,11.20
2017,04,01,14,27,11.20
2017,04,01,14,28,11.20
2017,04,01,14,29,11.30
2017,04,01,14,31,11.30
2017,04,01,14,32,11.30
2017,04,01,14,33,11.30
2017,04,01,14,34,11.40
2017,04,01,14,36,11.40
2017,04,01,14,37,11.40
2017,04,01,14,38,11.40
2017,04,01,14,39,11.60
2017,04,01,14,41,11.60
2017,04,01,14,42,11.60
2017,04,01,14,43,11.60
2017,04,01,14,44,11.70
2017,04,01,14,45,11.80
2017,04,01,14,46,11.80
2017,04,01,14,47,11.90
2017,04,01,14,48,11.90
2017,04,01,14,49,12.00
2017,04,01,14,50,12.10
2017,04,01,14,51,12.20
2017,04,01,14,52,12.20
2017,04,01,14,53,12.20
2017,04,01,14,54,12.30
2017,04,01,14,55,12.30
2017,04,01,14,56,12.30
2017,04,01,14,57,12.30
2017,04,01,14,58,12.30
2017,04,01,14,59,12.30
2017,04,01,15,00,12.30
2017,04,01,15,01,12.30
2017,04,01,15,02,12.30
2017,04,01,15,03,12.30
2017,04,01,15,04,12.30
2017,04,01,15,05,12.30
2017,04,01,15,06,12.30
2017,04,01,15,07,12.30
2017,04,01,15,08,12.30
2017,04,01,15,09,12.30
2017,04,01,15,10,12.30
2017,04,01,15,11,12.30
2017,04,01,15,12,12.20
2017,04,01,15,13,12.20
2017,04,01,15,14,12.10
2017,04,01,15,15,12.10
2017,04,01,15,16,12.10
2017,04,01,15,17,12.00
2017,04,01,15,18,11.90
2017,04,01,15,19,11.90
2017,04,01,15,20,11.90
2017,04,01,15,21,11.80
2017,04,01,15,22,11.80
2017,04,01,15,23,11.70
2017,04,01,15,24,11.70
2017,04,01,15,25,11.70
2017,04,01,15,26,11.60
2017,04,01,15,27,11.60
2017,04,01,15,28,11.60
2017,04,01,15,29,11.40
2017,04,01,15,30,11.40
2017,04,01,15,31,11.40
2017,04,01,15,32,11.40
2017,04,01,15,33,11.40
2017,04,01,15,34,11.40
2017,04,01,15,35,11.40
2017,04,01,15,36,11.40
2017,04,01,15,37,11.40
2017,04,01,15,38,11.60
2017,04,01,15,39,11.60
2017,04,01,15,40,11.70
2017,04,01,15,41,11.70
2017,04,01,15,42,11.80
2017,04,01,15,43,11.80
2017,04,01,15,44,12.00
2017,04,01,15,45,12.10
2017,04,01,15,46,12.20
2017,04,01,15,47,12.30
2017,04,01,15,48,12.40
2017,04,01,15,49,12.50
2017,04,01,15,50,12.70
2017,04,01,15,51,12.80
2017,04,01,15,52,12.80
2017,04,01,15,53,12.90
2017,04,01,15,54,13.10
2017,04,01,15,55,13.20
2017,04,01,15,56,13.30
2017,04,01,15,57,13.30
2017,04,01,15,58,13.40
2017,04,01,15,59,13.50
2017,04,01,16,00,13.60
2017,04,01,16,01,13.70
2017,04,01,16,02,13.70
2017,04,01,16,03,13.80
2017,04,01,16,04,13.90
2017,04,01,16,05,13.90
2017,04,01,16,06,14.00
2017,04,01,16,08,14.20
2017,04,01,16,09,14.20
2017,04,01,16,11,14.40
2017,04,01,16,12,14.40
2017,04,01,16,13,14.50
2017,04,01,16,14,14.60
2017,04,01,16,16,14.60
2017,04,01,16,17,14.60
2017,04,01,16,18,14.60
2017,04,01,16,19,14.60
2017,04,01,16,21,14.60
2017,04,01,16,22,14.60
2017,04,01,16,23,14.60
2017,04,01,16,24,14.60
2017,04,01,16,26,14.50
2017,04,01,16,27,14.50
2017,04,01,16,28,14.50
2017,04,01,16,29,14.50
2017,04,01,16,31,14.50
2017,04,01,16,32,14.50
2017,04,01,16,33,14.40
2017,04,01,16,34,14.40
2017,04,01,16,36,14.30
2017,04,01,16,37,14.30
2017,04,01,16,38,14.30
2017,04,01,16,39,14.30
2017,04,01,16,41,14.30
2017,04,01,16,42,14.30
2017,04,01,16,43,14.30
2017,04,01,16,44,14.30
2017,04,01,16,46,14.20
2017,04,01,16,47,14.20
2017,04,01,16,48,14.20
2017,04,01,16,49,14.20
2017,04,01,16,51,14.20
2017,04,01,16,52,14.20
2017,04,01,16,53,14.20
2017,04,01,16,54,14.20
2017,04,01,16,56,14.10
2017,04,01,16,57,14.10
2017,04,01,16,58,14.00
2017,04,01,16,59,14.00
2017,04,01,17,01,13.80
2017,04,01,17,02,13.80
2017,04,01,17,03,13.80
2017,04,01,17,04,13.80
2017,04,01,17,06,13.80
2017,04,01,17,07,13.80
2017,04,01,17,08,13.70
2017,04,01,17,09,13.70
2017,04,01,17,11,13.70
2017,04,01,17,12,13.70
2017,04,01,17,13,13.70
2017,04,01,17,14,13.70
2017,04,01,17,16,13.70
2017,04,01,17,17,13.70
2017,04,01,17,18,13.70
2017,04,01,17,19,13.70
2017,04,01,17,21,13.70
2017,04,01,17,22,13.70
2017,04,01,17,23,13.60
2017,04,01,17,24,13.60
2017,04,01,17,26,13.50
2017,04,01,17,27,13.40
2017,04,01,17,28,13.40
2017,04,01,17,29,13.30
2017,04,01,17,31,13.30
2017,04,01,17,32,13.30
2017,04,01,17,33,13.30
2017,04,01,17,34,13.30
2017,04,01,17,36,13.20
2017,04,01,17,37,13.10
2017,04,01,17,38,13.10
2017,04,01,17,39,13.10
2017,04,01,17,40,13.00
2017,04,01,17,41,13.00
2017,04,01,17,42,13.00
2017,04,01,17,43,12.90
2017,04,01,17,44,12.90
2017,04,01,17,45,12.90
2017,04,01,17,46,12.90
2017,04,01,17,47,12.90
2017,04,01,17,48,12.90
2017,04,01,17,49,12.90
2017,04,01,17,50,12.90
2017,04,01,17,51,12.90
2017,04,01,17,52,12.80
2017,04,01,17,53,12.80
2017,04,01,17,54,12.80
2017,04,01,17,55,12.80
2017,04,01,17,56,12.80
2017,04,01,17,57,12.80
2017,04,01,17,58,12.80
2017,04,01,17,59,12.70
2017,04,01,18,00,12.70
2017,04,01,18,01,12.70
2017,04,01,18,02,12.70
2017,04,01,18,03,12.60
2017,04,01,18,04,12.60
2017,04,01,18,05,12.60
2017,04,01,18,06,12.60
2017,04,01,18,07,12.50
2017,04,01,18,08,12.50
2017,04,01,18,09,12.50
2017,04,01,18,10,12.40
2017,04,01,18,11,12.40
2017,04,01,18,12,12.40
2017,04,01,18,13,12.30
2017,04,01,18,14,12.30
2017,04,01,18,15,12.30
2017,04,01,18,16,12.20
2017,04,01,18,17,12.10
2017,04,01,18,18,12.00
2017,04,01,18,19,12.00
2017,04,01,18,20,11.90
2017,04,01,18,21,11.90
2017,04,01,18,22,11.80
2017,04,01,18,23,11.80
2017,04,01,18,24,11.80
2017,04,01,18,25,11.80
2017,04,01,18,26,11.70
2017,04,01,18,27,11.70
2017,04,01,18,28,11.60
2017,04,01,18,29,11.60
2017,04,01,18,30,11.60
2017,04,01,18,31,11.60
2017,04,01,18,32,11.60
2017,04,01,18,33,11.40
2017,04,01,18,34,11.40
2017,04,01,18,35,11.40
2017,04,01,18,36,11.40
2017,04,01,18,37,11.40
2017,04,01,18,38,11.30
2017,04,01,18,39,11.30
2017,04,01,18,40,11.30
2017,04,01,18,41,11.20
2017,04,01,18,42,11.20
2017,04,01,18,43,11.20
2017,04,01,18,44,11.10
2017,04,01,18,45,11.10
2017,04,01,18,46,10.90
2017,04,01,18,47,10.90
2017,04,01,18,48,10.90
2017,04,01,18,49,10.80
2017,04,01,18,50,10.80
2017,04,01,18,51,10.70
2017,04,01,18,53,10.70
2017,04,01,18,54,10.60
2017,04,01,18,56,10.60
2017,04,01,18,57,10.60
2017,04,01,18,58,10.60
2017,04,01,18,59,10.60
2017,04,01,19,01,10.40
2017,04,01,19,02,10.40
2017,04,01,19,03,10.40
2017,04,01,19,04,10.40
2017,04,01,19,06,10.40
2017,04,01,19,07,10.40
2017,04,01,19,08,10.30
2017,04,01,19,09,10.30
2017,04,01,19,11,10.20
2017,04,01,19,12,10.20
2017,04,01,19,13,10.10
2017,04,01,19,14,10.10
2017,04,01,19,16,10.10
2017,04,01,19,17,10.10
2017,04,01,19,18,9.90
2017,04,01,19,19,9.90
2017,04,01,19,21,9.90
2017,04,01,19,22,9.80
2017,04,01,19,23,9.80
2017,04,01,19,24,9.80
2017,04,01,19,26,9.70
2017,04,01,19,27,9.70
2017,04,01,19,28,9.70
2017,04,01,19,29,9.70
2017,04,01,19,31,9.70
2017,04,01,19,32,9.60
2017,04,01,19,33,9.60
2017,04,01,19,34,9.60
2017,04,01,19,36,9.50
2017,04,01,19,37,9.50
2017,04,01,19,38,9.50
2017,04,01,19,39,9.50
2017,04,01,19,41,9.50
2017,04,01,19,42,9.50
2017,04,01,19,43,9.50
2017,04,01,19,44,9.40
2017,04,01,19,46,9.40
2017,04,01,19,47,9.40
2017,04,01,19,48,9.40
2017,04,01,19,49,9.30
2017,04,01,19,51,9.30
2017,04,01,19,52,9.30
2017,04,01,19,53,9.30
2017,04,01,19,54,9.30
2017,04,01,19,56,9.30
2017,04,01,19,57,9.30
2017,04,01,19,58,9.30
2017,04,01,19,59,9.30
2017,04,01,20,01,9.30
2017,04,01,20,02,9.30
2017,04,01,20,03,9.30
2017,04,01,20,04,9.20
2017,04,01,20,06,9.20